#timestamp,LO_Frequency,Hit,StdDev 
1501092015.5,286047002.3,N,1.4
1501092035.3,286047002.5,N,1.4
1501092055.1,286047002.5,N,1.4
1501092075.9,286046999.8,N,1.4
1501092095.7,286047002.4,N,1.4
1501092115.6,286047002.6,N,1.4
1501092135.4,286047000.3,N,1.4
1501092155.2,286047002.8,N,1.4
1501092175.1,286046999.8,N,1.4
1501092176.0,286046999.8,N,1.4
1501092195.8,286047000.8,N,1.3
1501092215.7,286047000.6,N,1.3
1501092235.5,286047000.7,N,1.3
1501092255.3,286047001.0,N,1.3
1501092275.2,286047000.3,N,1.3
1501092295.0,286047002.2,N,1.3
1501092295.9,286047002.2,N,1.4
1501092315.8,286047002.3,N,1.4
1501092335.6,286047002.3,N,1.4
1501092355.4,286047000.1,N,1.3
1501092375.3,286047000.2,N,1.3
1501092395.1,286047000.9,N,1.2
1501092415.8,286047000.0,N,1.2
1501092435.7,286047002.1,N,1.1
1501092455.5,286047002.7,N,1.1
1501092475.4,286047002.5,N,1.1
1501092495.2,286047002.1,N,1.1
1501092515.0,286047002.6,N,1.1
1501092515.9,286047002.6,N,1.1
1501092535.8,286047000.7,N,1.1
1501092555.6,286046999.7,N,1.1
1501092575.5,286046999.8,N,1.1
1501092595.3,286047000.0,N,1.1
1501092615.1,286047002.3,N,1.1
1501092635.9,286047002.3,N,1.1
1501092655.7,286047001.4,N,1.1
1501092675.6,286047001.3,N,1.1
1501092695.4,286047001.8,N,1.0
1501092715.2,286047001.6,N,1.0
1501092735.1,286047001.7,N,1.0
1501092736.0,286047001.7,N,1.0
1501092755.8,286047002.0,N,1.0
1501092775.7,286047001.9,N,0.9
1501092795.5,286047002.0,N,0.9
1501092815.3,286047000.3,N,0.9
1501092835.2,286047002.4,N,0.9
1501092855.0,286047000.0,N,1.0
1501092855.9,286047000.0,N,1.0
1501092875.7,286047001.4,N,1.0
1501092895.6,286047002.2,N,1.0
1501092915.4,286047001.6,N,0.9
1501092935.3,286047001.6,N,0.9
1501092955.1,286047003.8,P,1.2
1501092975.9,286047002.6,N,0.9
1501092995.7,286047001.7,N,0.9
1501093015.5,286047001.3,N,0.9
1501093035.4,286047001.8,N,0.9
1501093055.2,286047001.7,N,0.8
1501093075.0,286047001.7,N,0.8
1501093076.0,286047001.7,N,0.7
1501093095.8,286047001.3,N,0.7
1501093115.6,286047004.1,P,1.1
1501093135.5,286047001.9,N,1.0
1501093155.3,286047002.4,N,0.9
1501093175.1,286046999.9,N,1.3
1501093195.9,286047000.4,N,1.4
1501093215.7,286047000.1,N,1.4
1501093235.6,286047000.1,N,1.4
1501093255.4,286047000.5,N,1.3
1501093275.2,286046998.5,N,1.5
1501093295.1,286047001.0,N,1.4
1501093296.0,286047001.0,N,1.4
1501093315.8,286046998.9,N,1.4
1501093335.7,286046998.3,N,1.5
1501093355.5,286046998.5,N,1.6
1501093375.3,286046999.0,N,1.6
1501093395.2,286046999.1,N,1.5
1501093415.0,286046996.5,N,1.7
1501093415.9,286046996.5,N,1.9
1501093435.8,286046996.8,N,2.0
1501093455.6,286046996.9,N,2.0
1501093475.4,286046997.7,N,2.0
1501093495.3,286046996.7,N,2.0
1501093515.1,286046997.6,N,2.0
1501093535.8,286046995.7,N,2.1
1501093555.7,286046995.9,N,2.2
1501093575.5,286046998.0,N,2.1
1501093595.4,286046995.8,N,2.2
1501093615.2,286046995.6,N,2.2
1501093635.0,286046993.5,N,2.4
1501093635.9,286046993.5,N,2.5
1501093655.8,286046993.7,N,2.4
1501093675.6,286046996.3,N,2.3
1501093695.5,286046993.3,N,2.3
1501093715.3,286046993.9,N,2.3
1501093735.1,286046993.9,N,2.3
1501093755.9,286046994.1,N,2.3
1501093775.7,286046994.1,N,2.3
1501093795.6,286046992.2,P,2.2
1501093815.4,286046996.8,N,2.1
1501093835.2,286046997.6,N,2.1
1501093855.1,286046997.1,N,2.0
1501093856.0,286046997.1,N,1.8
1501093875.8,286046994.9,N,1.8
1501093895.7,286046997.2,N,1.7
1501093915.5,286046997.3,N,1.6
1501093935.3,286046997.4,N,1.6
1501093955.2,286046998.0,N,1.6
1501093975.0,286046995.1,P,0.7
1501093975.9,286046995.1,P,0.7
1501093995.8,286046998.3,N,1.3
1501094015.6,286046998.7,N,1.5
1501094035.4,286046998.8,N,1.6
1501094055.3,286046999.0,N,1.6
1501094075.1,286046996.7,N,1.5
1501094095.9,286046997.3,N,1.4
1501094115.7,286046997.5,N,1.4
1501094135.5,286046995.0,P,1.2
1501094155.4,286047000.8,N,2.4
1501094175.2,286047001.1,N,2.5
1501094195.1,286046998.1,N,2.3
1501094196.0,286046998.1,N,2.1
1501094215.8,286046998.2,N,1.9
1501094235.6,286046998.3,N,1.8
1501094255.5,286046998.5,N,1.7
1501094275.3,286047000.8,N,1.8
1501094295.1,286047000.8,N,1.8
1501094315.9,286046998.6,N,1.7
1501094335.7,286047001.2,N,1.8
1501094355.6,286046998.5,N,1.7
1501094375.4,286046999.3,N,1.7
1501094395.2,286046998.4,N,1.6
1501094415.1,286046998.8,N,1.6
1501094416.0,286046998.8,N,1.5
1501094435.8,286046999.3,N,1.5
1501094455.7,286046998.8,N,1.4
1501094475.5,286046999.4,N,1.4
1501094495.3,286046999.2,N,1.4
1501094515.2,286046997.0,N,1.4
1501094535.0,286046999.2,N,1.4
1501094535.9,286046999.2,N,1.4
1501094555.8,286046999.0,N,1.3
1501094575.6,286046999.3,N,1.3
1501094595.4,286046996.8,N,1.3
1501094615.3,286046996.7,N,1.4
1501094635.1,286046997.3,N,1.4
1501094655.9,286046996.6,N,1.4
1501094675.7,286046999.1,N,1.2
1501094695.5,286046998.9,N,1.2
1501094715.4,286046998.7,N,1.1
1501094735.2,286046999.0,N,1.1
1501094755.0,286046996.9,N,1.1
1501094755.9,286046996.9,N,1.2
1501094775.8,286046999.6,N,1.2
1501094795.6,286046996.7,N,1.2
1501094815.5,286046995.5,P,1.6
1501094835.3,286046997.8,N,1.3
1501094855.1,286046997.7,N,1.2
1501094875.9,286046997.2,N,1.0
1501094895.7,286046997.2,N,1.0
1501094915.6,286046998.7,N,1.0
1501094935.4,286046998.1,N,1.0
1501094955.2,286046998.6,N,1.0
1501094975.1,286046999.1,N,1.0
1501094976.0,286046999.1,N,1.0
1501094995.8,286046998.3,N,1.0
1501095015.7,286046998.1,N,0.9
1501095035.5,286047000.7,N,1.1
1501095055.3,286047001.2,N,1.3
1501095075.2,286047001.1,N,1.4
1501095095.0,286047000.9,N,1.5
1501095095.9,286047000.9,N,1.5
1501095115.8,286047001.1,N,1.6
1501095135.6,286046998.5,N,1.6
1501095155.4,286047000.8,N,1.6
1501095175.3,286047000.0,N,1.5
1501095195.1,286047000.9,N,1.6
1501095215.9,286047000.3,N,1.5
1501095235.7,286047000.8,N,1.5
1501095255.5,286047000.2,N,1.5
1501095275.4,286047000.0,N,1.5
1501095295.2,286047002.1,N,1.6
1501095315.0,286047002.6,N,1.6
1501095316.0,286047002.6,N,1.7
1501095335.8,286047001.7,N,1.7
1501095355.6,286047001.9,N,1.6
1501095375.5,286047003.8,N,1.7
1501095395.3,286047001.4,N,1.6
1501095415.1,286047003.9,N,1.7
1501095435.9,286047001.7,N,1.6
1501095455.7,286047001.3,N,1.5
1501095475.6,286047001.9,N,1.5
1501095495.4,286047003.1,N,1.4
1501095515.2,286047003.7,N,1.5
1501095535.1,286047001.3,N,1.4
1501095536.0,286047001.3,N,1.3
1501095555.8,286047004.3,P,1.5
1501095575.7,286047001.3,N,1.4
1501095595.5,286047004.0,N,1.4
